Decatur, IL

9:09 AM CST on February 07, 2016 (GMT -0600)
Decatur

Weather History for KDEC - July, 2013

Change the Weather History Date:

Saturday, July 27, 2013

  Actual Average Record
Temperature  
Mean Temperature 63 °F 75 °F  
Max Temperature 72 °F 86 °F 98 °F (1997)
Min Temperature 54 °F 64 °F 48 °F (2004)
Degree Days  
Heating Degree Days 2 0  
Month to date heating degree days 2 0  
Since 1 June heating degree days 16 17  
Since 1 July heating degree days 2 0  
Cooling Degree Days 0 10  
Month to date cooling degree days 253 292  
Year to date cooling degree days 607 608  
Since 1 June cooling degree days 495 521  
Growing Degree Days 14 (Base 50)    
Moisture  
Dew Point 53 °F    
Average Humidity 69    
Maximum Humidity 90    
Minimum Humidity 47    
Precipitation  
Precipitation 0.00 in 0.12 in 0.44 in (2006)
Month to date precipitation 2.68 3.42  
Year to date precipitation 25.94 22.22  
Sea Level Pressure  
Sea Level Pressure 29.96 in    
Wind  
Wind Speed 8 mph (WNW)    
Max Wind Speed 20 mph    
Max Gust Speed 28 mph    
Visibility 10 miles    
Events      
T = Trace of Precipitation, MM = Missing Value Source: NWS Daily Summary

Daily Weather History Graph

Daily Weather History Graph

Search for Another Location

Airport or City:

Trip Planner

Search our weather history database for the weather conditions in past years. The results will help you decide how hot, cold, wet, or windy it might be!

Date:

Astronomy

Jul. 27, 2013 Rise Set
Actual Time 5:49 AM CDT 8:13 PM CDT
Civil Twilight 5:19 AM CDT 8:44 PM CDT
Nautical Twilight 4:41 AM CDT 9:21 PM CDT
Astronomical Twilight 3:59 AM CDT 10:03 PM CDT
Moon 11:01 PM CDT (7/27) 11:29 AM CDT (7/27)
Length of Visible Light 15h 24m
Length of Day
14h 23m
Waning Gibbous, 70% of the Moon is Illuminated
Jul 27
Waning Gibbous
Jul 29
Last Quarter
Aug 6
New
Aug 14
First Quarter
Aug 20
Full

Hourly Weather History & Observations

Time (CDT) Temp. Dew Point Humidity Pressure Visibility Wind Dir Wind Speed Gust Speed Precip Events Conditions
12:54 AM 64.9 °F 60.1 °F 84% 29.95 in 10.0 mi NW 8.1 mph - N/A   Clear
1:54 AM 63.0 °F 59.0 °F 87% 29.95 in 10.0 mi WNW 3.5 mph - N/A   Clear
2:54 AM 62.1 °F 59.0 °F 90% 29.94 in 10.0 mi West 4.6 mph - N/A   Clear
3:54 AM 61.0 °F 57.0 °F 87% 29.93 in 10.0 mi WNW 4.6 mph - N/A   Clear
4:54 AM 60.1 °F 55.9 °F 86% 29.94 in 10.0 mi West 6.9 mph - N/A   Clear
5:54 AM 60.1 °F 55.9 °F 86% 29.95 in 10.0 mi West 4.6 mph - N/A   Clear
6:54 AM 61.0 °F 55.9 °F 83% 29.96 in 10.0 mi West 6.9 mph - N/A   Clear
7:54 AM 62.1 °F 57.0 °F 84% 29.96 in 10.0 mi NW 9.2 mph - N/A   Clear
8:54 AM 64.9 °F 57.9 °F 78% 29.96 in 10.0 mi NW 6.9 mph - N/A   Clear
9:54 AM 68.0 °F 57.9 °F 70% 29.96 in 10.0 mi WNW 9.2 mph 16.1 mph N/A   Clear
10:32 AM 68.0 °F 57.2 °F 68% 29.97 in 10.0 mi WNW 11.5 mph - N/A   Mostly Cloudy
10:54 AM 68.0 °F 57.0 °F 68% 29.96 in 10.0 mi West 11.5 mph - N/A   Mostly Cloudy
11:54 AM 68.0 °F 55.0 °F 63% 29.96 in 10.0 mi WNW 10.4 mph 20.7 mph N/A   Mostly Cloudy
12:54 PM 71.1 °F 53.1 °F 53% 29.95 in 10.0 mi West 16.1 mph - N/A   Mostly Cloudy
1:54 PM 70.0 °F 51.1 °F 51% 29.95 in 10.0 mi WNW 11.5 mph 23.0 mph N/A   Mostly Cloudy
2:54 PM 70.0 °F 50.0 °F 49% 29.95 in 10.0 mi WNW 16.1 mph 24.2 mph N/A   Overcast
3:54 PM 69.1 °F 48.0 °F 47% 29.96 in 10.0 mi NW 13.8 mph 23.0 mph N/A   Mostly Cloudy
4:54 PM 70.0 °F 48.9 °F 47% 29.96 in 10.0 mi WNW 15.0 mph 21.9 mph N/A   Mostly Cloudy
5:54 PM 66.9 °F 46.0 °F 47% 29.97 in 10.0 mi NW 12.7 mph 23.0 mph N/A   Mostly Cloudy
6:54 PM 64.9 °F 46.9 °F 52% 29.96 in 10.0 mi NNW 8.1 mph - N/A   Scattered Clouds
7:54 PM 64.0 °F 46.0 °F 52% 29.97 in 10.0 mi NW 8.1 mph - N/A   Clear
8:54 PM 61.0 °F 46.9 °F 60% 29.98 in 10.0 mi NW 5.8 mph - N/A   Clear
9:54 PM 57.9 °F 48.0 °F 70% 29.99 in 10.0 mi Calm Calm - N/A   Clear
10:54 PM 59.0 °F 48.9 °F 69% 30.00 in 10.0 mi Calm Calm - N/A   Partly Cloudy
11:54 PM 55.0 °F 48.9 °F 80% 29.99 in 10.0 mi WSW 3.5 mph - N/A   Clear